Regional Weather Roundup
Issued by NWS

Home | Current Version | Previous Version | Text Only | Print | Product List | Glossary Off
Versions: 1 2 3 4 5 6 7 8 9 10 11 12 13 14 15 16 17 18 19 20 21 22 23 24 25 26 27 28 29 30 31 32 33 34 35 36 37 38 39 40 41 42 43 44 45 46 47 48 49 50

000
ASUS45 KCYS 032110
RWRWY

WYOMING REGIONAL WEATHER ROUNDUP
NATIONAL WEATHER SERVICE CHEYENNE WY
300 PM MDT FRI JUL 03 2015

NOTE:  "FAIR" INDICATES FEW OR NO CLOUDS BELOW 12,000 FEET
WITH NO SIGNIFICANT WEATHER AND/OR OBSTRUCTIONS TO VISIBILITY.

WYZ001-032200-
YELLOWSTONE NATIONAL PARK

CITY           SKY/WX    TMP DP  RH WIND       PRES   REMARKS
LK YELLOWSTONE   N/A     80  29  15 NW10G17   30.24S
W YELLOWSTONE  NOT AVBL

$$
WYZ002>013-054>058-071-098>099-032200-
NORTHERN WYOMING

CITY           SKY/WX    TMP DP  RH WIND       PRES   REMARKS
JACKSON        FAIR      84  39  20 W15       30.12F
CODY           FAIR      86  48  26 E14       30.00F
GREYBULL       FAIR      92  46  20 S9        29.91F
WORLAND        FAIR      93  47  20 MISG      29.93F
SHERIDAN       FAIR      88  47  24 E6        29.98F
BUFFALO        FAIR      83  50  31 E8        30.06F
GILLETTE       FAIR      85  52  32 N7        30.02F
HULETT         FAIR      81  52  36 S7        30.06F
NEWCASTLE      FAIR      79  52  38 SE7       30.07F

$$
WYZ014>020-022>026-101>103-032200-
CENTRAL WYOMING

CITY           SKY/WX    TMP DP  RH WIND       PRES   REMARKS
BIG PINEY      FAIR      85  34  16 W12G17    30.18F
PINEDALE       FAIR      81  39  22 SW8       30.19F
DUBOIS         MOCLDY    81  28  15 NW22G28   30.15F
LANDER         FAIR      86  53  32 CALM      30.03F
RIVERTON       FAIR      90  50  25 VRB5      30.03F
CASPER         FAIR      87  44  22 VRB5      30.06F
DOUGLAS        FAIR      85  54  34 SE9G16    30.07F

$$
WYZ021-027>030-104>119-032200-
SOUTHERN WYOMING

CITY           SKY/WX    TMP DP  RH WIND       PRES   REMARKS
EVANSTON       FAIR      86  37  17 NW5       30.21F
KEMMERER       FAIR      86  32  14 W13G23    30.22F
FORT BRIDGER   MOCLDY    86  32  14 SW6       30.22F
ROCK SPRINGS   FAIR      84  32  15 VRB3      30.17F
DIXON          FAIR      87  32  14 SW7       30.18F
RAWLINS        FAIR      83  36  18 W12G17    30.18F
SARATOGA       FAIR      82  36  18 N5        30.22F
LARAMIE        FAIR      81  36  19 VRB6      30.22F
CHEYENNE       FAIR      78  55  44 S7        30.17F
TORRINGTON     FAIR      84  55  36 E3        30.04F
PINE BLUFFS    FAIR      82  54  36 SW7G16    30.12F

$$



USA.gov is the U.S. government's official web portal to all federal, state and local government web resources and services.